Stations météo

Publicité
Luxeuil, France (7292): Température de l'air & dewpoint: 16.07.2019 18:00:00 - 22.07.2019 18:00:00 (CEST)Luxeuil, France (7292): Température de l'air 5cm: 16.07.2019 18:00:00 - 22.07.2019 18:00:00 (CEST)Luxeuil, France (7292): Température de l'air -20cm & Température de l'air -100cm: 16.07.2019 18:00:00 - 22.07.2019 18:00:00 (CEST)Luxeuil, France (7292): Vitesse du vent & gusts: 16.07.2019 18:00:00 - 22.07.2019 18:00:00 (CEST)Luxeuil, France (7292): Direction du vent: 16.07.2019 18:00:00 - 22.07.2019 18:00:00 (CEST)Luxeuil, France (7292): reduced air pressure: 16.07.2019 18:00:00 - 22.07.2019 18:00:00 (CEST)Luxeuil, France (7292): visibility: 16.07.2019 18:00:00 - 22.07.2019 18:00:00 (CEST)Luxeuil, France (7292): Ensoleillement: 16.07.2019 18:00:00 - 22.07.2019 18:00:00 (CEST)Luxeuil, France (7292): Quantités de précipitations: 16.07.2019 18:00:00 - 22.07.2019 18:00:00 (CEST)
Date & Time tt [°C] td [°C] tt 5cm [°C] tt -20cm [°C] tt -100cm [°C] ff [km/h] ff [knt] fx [km/h] fx [knt] dd ppp [hPa] vv [km] sd [min] rr [mm]
22.07.2019 18:00:00 31,1 10,4 35,0 25,3 21,0 5 3 15 8 NNW 1020,2 60 60 0,0
22.07.2019 17:00:00 31,6 12,4 36,6 24,9 21,0 4 2 18 10 N 1020,6 20 60 0,0
22.07.2019 16:00:00 31,3 13,6 36,5 24,4 21,0 6 3 21 11 WNW 1021,1 60 58 0,0
22.07.2019 15:00:00 30,5 14,6 34,3 24,0 21,0 4 2 17 9 N 1021,6 19 27 0,0
22.07.2019 14:00:00 31,1 15,1 33,3 23,6 21,0 7 4 18 10 NE 1021,9 18 21 0,0
22.07.2019 13:00:00 29,5 14,9 34,2 23,4 21,0 7 4 18 10 SW 1022,4 38 60 0,0
22.07.2019 12:00:00 28,3 15,6 32,5 23,3 21,0 5 3 18 10 S 1022,8 19 60 0,0
22.07.2019 11:00:00 27,1 15,8 30,4 23,3 20,9 4 2 9 5 WSW 1022,9 18 54 0,0
22.07.2019 10:00:00 24,3 16,0 26,4 23,5 20,9 3 2 10 6 SSW 1023,3 52 60 0,0
22.07.2019 09:00:00 21,0 16,2 21,2 23,7 20,9 4 2 8 4 SSW 1023,7 18 60 0,0
22.07.2019 08:00:00 17,3 15,5 15,6 24,0 21,0 2 1 5 3 WSW 1024,1 46 50 0,0
22.07.2019 07:00:00 15,0 14,4 13,6 24,2 21,0 0 0 6 3 N 1024,2 34 35 0,0
22.07.2019 06:00:00 14,6 14,0 13,6 24,5 21,0 0 0 4 2 N 1023,8 30 0 0,0
22.07.2019 05:00:00 15,2 14,4 14,1 24,8 21,0 0 0 4 2 N 1023,6 39 0 0,0
22.07.2019 04:00:00 16,0 15,0 15,0 25,0 20,9 0 0 3 2 N 1023,5 45 0 0,0
22.07.2019 03:00:00 17,0 15,0 15,8 25,2 20,9 0 0 7 4 N 1023,1 60 0 0,0
22.07.2019 02:00:00 16,9 15,6 16,2 25,4 20,9 5 3 8 5 SE 1023,1 59 0 0,0
22.07.2019 01:00:00 18,7 15,4 16,8 25,6 20,9 4 2 7 4 SSW 1022,9 60 0 0,0
22.07.2019 00:00:00 19,3 16,3 18,1 25,8 20,9 5 3 17 9 SW 1022,8 60 0 0,0
21.07.2019 23:00:00 20,9 17,1 19,6 25,8 20,9 3 2 8 4 ENE 1022,1 59 0 0,0
21.07.2019 22:00:00 21,9 18,1 20,2 25,7 20,9 3 2 5 3 NE 1021,6 38 0 0,0
21.07.2019 21:00:00 24,7 18,6 24,4 25,6 20,9 2 1 10 5 W 1020,7 60 49 0,0
21.07.2019 20:00:00 27,6 15,3 28,7 25,3 20,9 7 4 14 8 S 1020,1 60 47 0,0
21.07.2019 19:00:00 28,9 14,3 33,3 25,0 20,9 7 4 16 9 SSW 1019,9 54 60 0,0
21.07.2019 18:00:00 29,3 14,3 32,4 24,7 20,9 7 4 18 10 WSW 1019,9 57 57 0,0
21.07.2019 17:00:00 28,9 13,6 32,3 24,4 20,9 11 6 28 15 SSW 1020,2 46 57 0,0
21.07.2019 16:00:00 28,1 15,7 28,9 24,2 20,9 9 5 20 11 S 1020,6 60 36 0,0
21.07.2019 15:00:00 27,4 15,4 29,8 23,9 20,9 14 8 23 13 S 1020,9 57 43 0,0
21.07.2019 14:00:00 26,2 16,2 27,3 23,7 20,9 13 7 24 13 WSW 1021,3 50 18 0,0
21.07.2019 13:00:00 25,9 17,0 28,7 23,5 20,9 5 3 22 12 SE 1021,4 53 51 0,0
21.07.2019 12:00:00 25,1 17,8 24,8 23,5 20,9 5 3 16 9 SSW 1021,6 35 26 0,0
21.07.2019 11:00:00 23,6 18,0 24,7 23,6 20,9 2 1 11 6 WSW 1021,7 50 37 0,0
21.07.2019 10:00:00 22,4 18,6 21,8 23,6 20,9 4 2 10 5 S 1021,6 20 29 0,0
21.07.2019 09:00:00 20,2 18,5 21,1 23,8 20,9 3 2 10 6 SSW 1021,4 20 12 0,0
21.07.2019 08:00:00 19,3 18,6 18,8 24,0 20,9 8 4 14 8 ESE 1020,9 15 11 0,0
21.07.2019 07:00:00 18,2 17,9 17,9 24,2 20,9 4 2 8 4 SE 1020,7 11 0 0,0
21.07.2019 06:00:00 18,0 17,5 17,8 24,4 20,9 6 4 12 6 E 1020,1 10 0 0,0
21.07.2019 05:00:00 18,0 17,7 17,7 24,6 20,9 6 4 15 8 ESE 1019,7 10 0 0,0
21.07.2019 04:00:00 18,4 17,9 18,1 24,9 20,9 6 3 12 6 ESE 1019,5 11 0 0,0
21.07.2019 03:00:00 18,6 17,9 18,4 25,0 20,9 8 5 18 10 E 1018,9 14 0 0,0
21.07.2019 02:00:00 19,2 18,0 18,6 25,2 20,9 9 5 23 12 E 1018,5 17 0 0,4
21.07.2019 01:00:00 19,4 18,2 18,5 25,4 20,8 7 4 13 7 N 1018,0 19 0 2,0
21.07.2019 00:00:00 19,8 17,8 18,3 25,5 20,9 11 6 26 14 S 1017,3 10 0 2,9
20.07.2019 23:00:00 21,4 16,4 20,0 25,5 20,9 4 2 5 3 W 1016,1 57 0 0,0
20.07.2019 22:00:00 23,8 15,3 21,8 25,4 20,9 0 0 10 6 N 1015,4 9 0 0,0
20.07.2019 21:00:00 25,2 15,2 24,8 25,3 20,8 13 7 25 14 NNW 1014,6 60 4 0,0
20.07.2019 20:00:00 26,5 15,2 26,3 25,1 20,8 6 4 13 7 SSE 1013,4 60 0 0,0
20.07.2019 19:00:00 28,8 14,2 29,6 24,9 20,8 8 4 26 14 WSW 1013,1 58 0 0,0
20.07.2019 18:00:00 29,6 12,5 31,3 24,6 20,8 16 8 37 20 WSW 1013,5 42 31 0,0
20.07.2019 17:00:00 30,4 13,2 31,3 24,3 20,8 20 11 41 22 WSW 1013,5 42 49 0,0
20.07.2019 16:00:00 29,4 14,0 31,4 24,0 20,8 23 12 41 22 SW 1013,6 39 25 0,0
20.07.2019 15:00:00 28,9 13,2 31,4 23,6 20,8 19 10 47 25 W 1013,6 49 31 0,0
20.07.2019 14:00:00 29,4 13,2 30,6 23,4 20,8 26 14 45 25 SW 1013,5 20 48 0,0
20.07.2019 13:00:00 28,1 13,6 30,3 23,2 20,8 25 13 44 24 WSW 1013,7 60 11 0,0
20.07.2019 12:00:00 29,6 13,8 30,1 23,1 20,8 25 13 41 22 SW 1013,2 59 39 0,0
20.07.2019 11:00:00 28,0 12,8 30,2 23,1 20,8 22 12 40 21 WSW 1013,5 45 55 0,0
20.07.2019 10:00:00 25,9 13,4 26,2 23,3 20,8 5 3 24 13 SW 1013,4 58 46 0,0
20.07.2019 09:00:00 23,1 15,4 21,3 23,4 20,8 9 5 18 10 E 1013,6 30 56 0,0
20.07.2019 08:00:00 19,2 14,5 17,2 23,7 20,8 12 7 19 10 E 1013,8 35 60 0,0
20.07.2019 07:00:00 16,9 13,4 15,1 23,9 20,8 12 6 17 9 E 1013,9 33 37 0,0
20.07.2019 06:00:00 15,5 13,0 14,9 24,1 20,8 11 6 17 9 ENE 1013,7 33 0 0,0
20.07.2019 05:00:00 16,1 13,0 14,9 24,4 20,8 11 6 16 9 ENE 1013,8 36 0 0,0
20.07.2019 04:00:00 15,5 12,4 14,9 24,6 20,8 10 5 13 7 ENE 1013,9 39 0 0,0
20.07.2019 03:00:00 16,7 12,8 15,6 24,8 20,8 9 5 15 8 ENE 1014,1 40 0 0,0
20.07.2019 02:00:00 16,9 13,4 16,3 25,0 20,8 12 6 16 9 ENE 1014,2 40 0 0,0
20.07.2019 01:00:00 17,7 13,8 17,1 25,2 20,8 10 5 16 8 E 1014,5 37 0 0,0
20.07.2019 00:00:00 18,8 14,1 18,1 25,2 20,8 10 5 18 10 ENE 1014,5 44 0 0,0
19.07.2019 23:00:00 18,7 14,4 17,0 25,3 20,8 8 4 13 7 E 1014,5 47 0 0,0
19.07.2019 22:00:00 20,5 15,7 18,4 25,2 20,8 6 3 9 5 E 1014,2 32 0 0,0
19.07.2019 21:00:00 24,7 15,1 22,2 25,1 20,8 4 2 8 4 NE 1013,5 52 26 0,0
19.07.2019 20:00:00 27,6 13,2 30,1 24,8 20,8 4 2 15 8 WNW 1013,3 54 60 0,0
19.07.2019 19:00:00 28,0 12,4 32,2 24,6 20,8 6 3 20 11 SW 1013,4 48 60 0,0
19.07.2019 18:00:00 27,9 12,7 27,7 24,2 20,8 9 5 24 13 WNW 1013,8 60 41 0,0
19.07.2019 17:00:00 27,6 12,4 29,0 23,9 20,8 8 4 23 12 W 1014,2 30 36 0,0
19.07.2019 16:00:00 26,8 13,2 28,9 23,6 20,8 9 5 27 15 WNW 1014,6 46 39 0,0
19.07.2019 15:00:00 26,0 13,5 27,3 23,3 20,8 10 5 26 14 WSW 1015,1 44 16 0,0
19.07.2019 14:00:00 25,5 12,7 28,5 23,2 20,7 17 9 29 16 W 1015,6 48 36 0,0
19.07.2019 13:00:00 25,1 13,9 26,1 23,0 20,7 15 8 29 15 W 1015,7 60 27 0,0
19.07.2019 12:00:00 23,2 14,7 25,2 22,9 20,8 4 2 18 10 SSW 1016,2 56 16 0,0
19.07.2019 11:00:00 23,2 15,0 26,7 22,9 20,7 8 4 21 11 WNW 1016,6 51 58 0,0
19.07.2019 10:00:00 21,7 14,6 26,0 23,0 20,7 6 3 18 10 WNW 1016,5 53 60 0,0
19.07.2019 09:00:00 20,2 13,4 21,3 23,2 20,7 4 2 10 6 W 1016,9 34 55 0,0
19.07.2019 08:00:00 18,1 14,2 16,3 23,4 20,8 6 3 9 5 E 1016,5 27 32 0,0
19.07.2019 07:00:00 15,8 13,3 14,5 23,6 20,8 3 2 7 4 E 1016,6 19 0 0,0
19.07.2019 06:00:00 15,2 13,2 14,2 23,9 20,8 4 2 10 5 E 1016,2 27 0 0,0
19.07.2019 05:00:00 15,1 14,0 14,0 24,0 20,7 8 5 10 5 ESE 1015,9 18 0 0,0
19.07.2019 04:00:00 15,6 14,0 15,1 24,3 20,7 4 2 7 4 E 1015,7 25 0 0,0
19.07.2019 03:00:00 16,3 14,3 15,3 24,4 20,7 4 2 6 4 E 1015,6 26 0 0,0
19.07.2019 02:00:00 16,8 14,8 15,8 24,6 20,7 3 2 9 5 E 1015,3 22 0 0,0
19.07.2019 01:00:00 17,5 15,3 16,8 24,8 20,7 4 2 6 3 E 1015,1 26 0 0,0
19.07.2019 00:00:00 18,1 15,7 16,6 24,9 20,7 3 1 4 2 ENE 1014,6 30 0 0,0
18.07.2019 23:00:00 19,5 15,6 17,9 24,9 20,7 0 0 5 3 N 1014,2 35 0 0,0
18.07.2019 22:00:00 21,1 15,6 19,4 25,0 20,8 2 1 7 4 N 1013,6 39 0 0,0
18.07.2019 21:00:00 24,0 14,1 22,7 24,9 20,7 4 2 7 4 WSW 1012,6 45 21 0,0
18.07.2019 20:00:00 25,6 14,1 25,9 24,8 20,7 6 3 16 9 W 1012,1 51 3 0,0
18.07.2019 19:00:00 26,8 13,5 28,4 24,6 20,7 11 6 27 14 W 1011,8 44 13 0,0
18.07.2019 18:00:00 26,5 11,0 27,3 24,3 20,7 15 8 33 18 SSW 1011,8 50 6 0,0
18.07.2019 17:00:00 26,8 12,1 28,2 23,9 20,7 14 8 32 17 W 1011,8 51 1 0,0
18.07.2019 16:00:00 28,4 11,0 31,6 23,5 20,7 14 8 32 17 WSW 1011,8 32 49 0,0
18.07.2019 15:00:00 28,4 10,6 32,4 23,1 20,7 16 8 34 19 SW 1011,8 41 52 0,0
18.07.2019 14:00:00 27,9 9,7 31,7 22,7 20,7 14 7 29 15 WSW 1012,0 35 53 0,0
18.07.2019 13:00:00 27,6 10,8 32,9 22,5 20,7 9 5 26 14 SW 1012,5 19 60 0,0
18.07.2019 12:00:00 26,3 10,8 31,1 22,5 20,7 7 4 22 12 SSW 1012,8 37 60 0,0
18.07.2019 11:00:00 24,6 11,2 29,3 22,5 20,7 5 3 16 9 S 1013,1 50 60 0,0
18.07.2019 10:00:00 22,5 10,0 24,7 22,6 20,7 4 2 11 6 SE 1013,2 50 55 0,0
18.07.2019 09:00:00 18,7 11,3 17,2 22,9 20,7 5 3 10 5 SE 1013,6 34 49 0,0
18.07.2019 08:00:00 15,0 11,6 13,3 23,2 20,7 4 2 8 5 WSW 1014,0 35 30 0,0
18.07.2019 07:00:00 13,0 9,8 10,4 23,4 20,7 0 0 9 5 N 1013,7 33 23 0,0
18.07.2019 06:00:00 11,0 9,7 10,0 23,8 20,7 5 3 12 6 SSE 1013,9 36 0 0,0
18.07.2019 05:00:00 11,8 10,5 10,9 24,0 20,7 6 4 8 5 SE 1013,7 35 0 0,0
18.07.2019 04:00:00 12,5 10,9 11,3 24,3 20,7 2 1 3 2 NE 1013,7 6 0 0,0
18.07.2019 03:00:00 12,6 10,7 11,5 24,6 20,7 3 1 5 3 NW 1013,9 43 0 0,0
18.07.2019 02:00:00 14,5 10,7 13,0 24,8 20,7 2 1 6 3 NNE 1013,7 60 0 0,0
18.07.2019 01:00:00 13,9 11,6 13,2 25,0 20,7 6 3 7 4 ESE 1013,7 60 0 0,0
18.07.2019 00:00:00 15,3 11,9 14,1 25,2 20,7 3 1 5 3 ESE 1013,6 60 0 0,0
17.07.2019 23:00:00 17,5 9,4 14,5 25,2 20,7 4 2 7 4 SW 1013,3 60 0 0,0
17.07.2019 22:00:00 19,4 10,4 17,0 25,1 20,7 6 3 9 5 W 1012,7 19 0 0,0
17.07.2019 21:00:00 22,6 12,2 21,7 24,9 20,7 4 2 10 5 NW 1011,7 60 7 0,0
17.07.2019 20:00:00 26,6 6,6 27,8 24,6 20,7 4 2 13 7 N 1011,2 60 25 0,0
17.07.2019 19:00:00 28,0 4,9 31,4 24,2 20,7 10 5 21 11 WNW 1010,9 55 60 0,0
17.07.2019 18:00:00 28,8 6,2 33,4 23,7 20,7 9 5 22 12 NW 1011,1 60 60 0,0
17.07.2019 17:00:00 28,1 6,2 33,9 23,2 20,7 7 4 23 13 W 1011,7 55 60 0,0
17.07.2019 16:00:00 27,7 7,0 34,1 22,6 20,7 9 5 26 14 WSW 1012,2 32 60 0,0
17.07.2019 15:00:00 27,2 6,6 33,1 22,2 20,7 6 3 24 13 WNW 1012,5 60 60 0,0
17.07.2019 14:00:00 26,7 8,6 33,0 21,8 20,7 13 7 27 14 WSW 1013,2 20 60 0,0
17.07.2019 13:00:00 25,1 10,2 30,4 21,7 20,7 15 8 25 14 WNW 1013,5 46 60 0,0
17.07.2019 12:00:00 23,6 11,6 26,4 21,6 20,7 7 4 18 10 W 1014,0 44 52 0,0
17.07.2019 11:00:00 22,9 12,5 27,8 21,7 20,8 6 3 11 6 NNW 1014,3 27 60 0,0
17.07.2019 10:00:00 20,6 11,8 23,2 21,8 20,7 2 1 8 5 SE 1014,7 32 60 0,0
17.07.2019 09:00:00 17,3 12,8 19,6 22,0 20,8 3 1 8 5 W 1015,0 20 60 0,0
17.07.2019 08:00:00 14,1 12,1 11,4 22,3 20,8 2 1 5 3 WSW 1015,2 18 60 0,0
17.07.2019 07:00:00 10,9 10,1 9,2 22,6 20,8 3 1 4 2 ESE 1015,6 16 35 0,0
17.07.2019 06:00:00 10,5 10,0 8,9 22,9 20,8 0 0 3 1 N 1015,9 6 0 0,0
17.07.2019 05:00:00 10,9 10,3 9,1 23,1 20,8 2 1 3 2 WNW 1015,9 14 0 0,0
17.07.2019 04:00:00 11,9 11,0 10,3 23,4 20,8 0 0 3 2 N 1016,1 20 0 0,0
17.07.2019 03:00:00 12,4 11,5 11,3 23,7 20,8 0 0 3 2 N 1016,4 10 0 0,0
17.07.2019 02:00:00 13,1 12,3 11,8 23,9 20,8 4 2 5 3 ESE 1016,5 19 0 0,0
17.07.2019 01:00:00 15,5 13,0 13,3 24,0 20,8 4 2 6 4 NNE 1016,1 31 0 0,0
17.07.2019 00:00:00 15,6 13,8 13,5 24,2 20,8 5 3 6 3 WNW 1016,1 4,4 0 0,0
16.07.2019 23:00:00 17,5 14,2 15,3 24,2 20,8 0 0 24 13 N 1015,6 26 0 0,0
16.07.2019 22:00:00 19,9 15,3 18,3 24,1 20,8 0 0 6 4 N 1015,0 38 0 0,0
16.07.2019 21:00:00 24,7 11,3 23,0 24,0 20,8 3 1 9 5 NNW 1014,4 60 53 0,0
16.07.2019 20:00:00 25,9 11,6 28,0 23,6 20,8 6 3 13 7 NNW 1014,3 60 60 0,0
16.07.2019 19:00:00 26,3 9,2 28,5 23,1 20,9 9 5 18 10 W 1014,3 55 30 0,0
16.07.2019 18:00:00 27,4 8,8 32,1 22,6 20,9 7 4 17 9 W 1014,4 60 60 0,0

tt = Température de l'air
td = dewpoint
tt 5cm = Température de l'air 5cm
tt -20cm = Température de l'air -20cm
tt -100cm = Température de l'air -100cm
ff = Vitesse du vent
fx = gusts
dd = Direction du vent
ppp = reduced air pressure
vv = visibility
sd = Ensoleillement
rr = Quantités de précipitations

stations d'obs. à proximité